Location: ??
(35.5052°N, 139.7262°E)
Time: 03:48:08
(UTC+00:00)

BREEZE-M DEB (TANK) - Pass Details

Date: 20 June 2021
Orbit: 430 x 13232 km, 46.0° (Epoch: 26 July)

Event Time Altitude Azimuth Distance (km) Brightness Sun altitude
Exits shadow 18:02:17 21° 237° (WSW) 1,754 4.7 -14.5°
Maximum altitude 18:05:24 88° 325° (NW) 565 2.8 -14.0°
Drops below altitude 10° 18:08:19 10° 57° (ENE) 1,558 6.5 -13.6°
Sets 18:10:00 0° 58° (ENE) 2,396 7.9 -13.4°
